Home > Weather > Liepāja > Past weeks

Flag for Latvia Past Weather in Liepāja, Latvia — Yesterday and Last 2 Weeks

Now
61 °F

Sunny.


Feels Like: 61 °F
Forecast: 60 / 73 °F
Wind: No wind

Location: Liepaja International Airport

Current Time: Jul 28, 2016 at 12:16:56 AM

Latest Report: Jul 27, 2016 at 11:20 PM


Visibility: 10 mi

Pressure: 30.01 "Hg

Humidity: 94%

Dew Point: 59 °F

Location of LiepājaLocation

Past Weather in Liepāja — Graph

°F

Liepāja Temperature Yesterday

Maximum temperature yesterday: 75 °F (at 4:50 PM)
Minimum temperature yesterday: 61 °F (at 10:50 PM)
Average temperature yesterday: 70 °F

High & Low Weather Summary for the Past Weeks

 TemperatureHumidityPressure
High79 °F (Jul 25, 2:20 PM)100% (Jul 14, 4:50 AM)30.15 "Hg (Jul 14, 4:50 AM)
Low48 °F (Jul 19, 4:20 AM)53% (Jul 14, 2:50 PM)29.53 "Hg (Jul 15, 6:20 AM)
Average65 °F83%29.97 "Hg
* Reported Jul 12 11:20 PM — Jul 27 11:20 PM, Liepāja, Weather by CustomWeather, © 2016

Note: Actual official high and low records may vary slightly from our data, if they occured in-between our weather recording intervals... More about our weather records

Advertising

Liepāja Weather History for the Previous 24 Hours

Scroll right to see more
 ConditionsComfort  
Time TempWeatherWind HumidityBarometerVisibility
11:20 PM
Wed, Jul 27
61 °FSunny.No wind94%30.01 "Hg10 mi
10:50 PM61 °FCool.No wind94%30.01 "Hg5 mi
10:20 PM63 °FSunny.No wind88%30.01 "Hg10 mi
9:50 PM66 °FSunny.No wind83%30.01 "Hg10 mi
9:20 PM70 °FSunny.2 mph73%30.01 "Hg10 mi
8:50 PM70 °FSunny.3 mph73%30.01 "Hg10 mi
8:20 PM72 °FPassing clouds.3 mph73%30.01 "HgN/A
7:50 PM72 °FSunny.5 mph69%30.01 "Hg10 mi
7:20 PM73 °FPassing clouds.5 mph65%30.01 "HgN/A
6:50 PM73 °FPassing clouds.5 mph61%30.01 "HgN/A
6:20 PM73 °FPassing clouds.6 mph61%30.01 "HgN/A
5:50 PM73 °FPassing clouds.8 mph57%30.01 "HgN/A
5:20 PM75 °FPassing clouds.7 mph54%30.04 "HgN/A
4:50 PM75 °FPassing clouds.8 mph57%30.04 "HgN/A
4:20 PM73 °FPassing clouds.8 mph65%30.04 "HgN/A
3:50 PM73 °FSunny.9 mph69%30.04 "Hg10 mi
3:20 PM73 °FPassing clouds.9 mph69%30.04 "HgN/A
2:50 PM73 °FPassing clouds.10 mph69%30.04 "HgN/A
2:20 PM73 °FSunny.12 mph74%30.04 "Hg10 mi
1:50 PM73 °FSunny.12 mph78%30.04 "Hg10 mi
1:20 PM73 °FPassing clouds.12 mph78%30.07 "HgN/A
12:50 PM73 °FPassing clouds.12 mph74%30.07 "HgN/A
12:20 PM73 °FPassing clouds.12 mph78%30.07 "HgN/A
11:50 AM72 °FPassing clouds.10 mph83%30.07 "HgN/A
11:20 AM73 °FPassing clouds.10 mph78%30.07 "HgN/A
10:50 AM72 °FPassing clouds.9 mph73%30.04 "HgN/A
10:20 AM72 °FPassing clouds.9 mph78%30.04 "HgN/A
9:50 AM72 °FPassing clouds.8 mph73%30.04 "HgN/A
9:20 AM72 °FPassing clouds.7 mph83%30.04 "HgN/A
8:50 AM70 °FBroken clouds.8 mph88%30.04 "HgN/A
8:20 AM70 °FScattered clouds.5 mph88%30.04 "HgN/A
7:50 AM68 °FBroken clouds.3 mph94%30.04 "HgN/A
7:20 AM68 °FPartly cloudy.3 mph94%30.04 "Hg6 mi
6:50 AM68 °FPassing clouds.3 mph94%30.04 "Hg4 mi
6:20 AM68 °FPassing clouds.3 mph94%30.04 "Hg5 mi
5:50 AM68 °FPassing clouds.6 mph94%30.04 "Hg5 mi
5:20 AM68 °FPartly cloudy.6 mph94%30.04 "Hg6 mi
4:50 AM66 °FPassing clouds.6 mph94%30.04 "HgN/A
4:20 AM68 °FPassing clouds.5 mph94%30.04 "HgN/A
3:50 AM68 °FPassing clouds.6 mph88%30.04 "HgN/A
3:20 AM68 °FPassing clouds.7 mph88%30.04 "HgN/A
2:50 AM68 °FPassing clouds.6 mph88%30.04 "HgN/A
2:20 AM66 °FPassing clouds.5 mph94%30.04 "HgN/A
1:50 AM68 °FPassing clouds.5 mph88%30.04 "HgN/A
1:20 AM66 °FPassing clouds.6 mph94%30.04 "HgN/A
12:50 AM68 °FPassing clouds.6 mph88%30.04 "HgN/A
12:20 AM68 °FPassing clouds.3 mph88%30.04 "HgN/A
Weather by CustomWeather, © 2016

See weather overviewHow to use our weather pages